CDT,Max TemperatureF,Mean TemperatureF,Min TemperatureF,Max Dew PointF,MeanDew PointF,Min DewpointF,Max Humidity, Mean Humidity, Min Humidity, Max Sea Level PressureIn, Mean Sea Level PressureIn, Min Sea Level PressureIn, Max VisibilityMiles, Mean VisibilityMiles, Min VisibilityMiles, Max Wind SpeedMPH, Mean Wind SpeedMPH, Max Gust SpeedMPH,PrecipitationIn, CloudCover, Events, WindDirDegrees
2012-9-1,98,82,66,54,48,43,56,37,15,30.03,29.85,29.68,10,10,9,28,17,39,0.00,2,Rain-Thunderstorm,143
2012-9-2,84,74,64,61,51,32,83,49,15,29.92,29.83,29.73,10,10,10,33,10,43,0.00,1,Rain,307
2012-9-3,84,68,51,57,47,32,94,49,34,29.93,29.89,29.85,10,10,10,15,6,20,0.00,1,Thunderstorm,109
2012-9-4,82,65,48,55,45,34,100,56,18,29.96,29.89,29.84,10,10,10,20,7,25,0.00,1,,308
2012-9-5,75,60,44,46,40,36,93,52,24,30.04,29.98,29.92,10,10,10,18,11,26,0.00,1,,290
2012-9-6,71,60,48,50,46,37,94,64,38,30.11,29.98,29.92,10,10,10,20,7,24,0.00,2,,21
2012-9-7,68,54,39,48,42,37,100,67,33,30.24,30.18,30.12,10,10,10,17,9,23,0.00,3,,319
2012-9-8,71,60,44,46,35,27,71,45,19,30.23,30.16,30.07,10,10,10,22,12,28,0.00,0,,328
2012-9-9,80,58,37,41,34,32,100,45,17,30.23,30.07,29.83,10,10,10,21,9,31,0.00,0,,170
2012-9-10,95,74,53,45,38,32,59,31,11,29.82,29.67,29.62,10,10,9,17,11,23,0.00,0,,152
2012-9-11,73,60,48,45,33,23,54,32,16,30.05,29.83,29.62,10,10,10,30,15,38,0.00,1,Rain-Thunderstorm,339
2012-9-12,69,53,37,28,23,16,65,34,14,30.31,30.20,30.06,10,10,10,23,11,33,0.00,1,,297
2012-9-13,77,57,37,32,25,18,61,36,11,30.35,30.29,30.20,10,10,10,22,7,29,0.00,1,,272
2012-9-14,73,55,37,36,33,28,81,46,19,30.35,30.27,30.13,10,10,10,10,7,,0.00,0,,357
2012-9-15,91,70,50,37,31,19,50,31,8,30.13,29.99,29.90,10,10,9,26,10,33,0.00,2,,249
2012-9-16,57,50,44,52,43,37,100,72,48,30.18,30.11,30.00,10,10,5,17,8,22,0.03,3,Rain,5
2012-9-17,59,49,39,46,35,23,100,67,25,30.18,30.14,30.11,10,10,10,20,7,25,0.00,3,,335
2012-9-18,77,56,35,39,32,27,75,40,19,30.10,29.88,29.72,10,10,10,22,9,29,0.00,3,,231
2012-9-19,66,58,48,39,30,16,66,37,15,30.04,29.92,29.70,10,10,10,36,15,46,0.00,1,,315
2012-9-20,64,52,39,32,28,23,66,43,24,30.05,30.03,29.95,10,10,5,9,6,22,0.00,5,,286
2012-9-21,66,54,39,36,27,23,56,31,21,30.21,30.06,29.98,10,10,10,26,19,34,0.00,0,,358
2012-9-22,55,40,26,27,21,16,80,49,21,30.38,30.31,30.21,10,10,8,7,5,,0.00,0,,37
2012-9-23,66,47,28,28,21,14,86,42,13,30.31,30.24,30.10,10,10,10,12,6,17,0.00,0,,147
2012-9-24,82,60,37,41,29,19,60,33,16,30.10,29.93,29.83,10,10,10,20,10,31,0.00,0,,289
2012-9-25,69,54,39,41,36,32,87,55,28,30.02,29.96,29.91,10,10,10,13,8,,0.00,1,,90
2012-9-26,77,57,37,39,38,36,100,56,24,30.13,30.08,30.02,10,10,8,14,9,21,0.00,1,,127
2012-9-27,73,60,48,43,39,36,71,47,27,30.13,30.11,30.09,10,10,9,13,8,18,0.00,1,Rain,169
2012-9-28,82,63,44,45,39,32,87,49,17,30.17,30.11,30.06,10,10,10,14,5,18,0.00,1,,171
2012-9-29,84,66,48,39,34,28,47,32,16,30.09,30.00,29.93,10,10,9,20,9,29,0.00,0,,161
2012-9-30,78,63,48,50,41,36,88,46,28,30.15,30.00,29.94,10,10,6,22,10,31,0.00,2,Rain,315